Weather History for West Plains, MO

Change the Weather History Date:

Wednesday, April 24, 2013

  Actual Average Record
Temperature  
Mean Temperature 45 °F 60 °F  
Max Temperature 56 °F 72 °F 87 °F (1965)
Min Temperature 34 °F 48 °F 30 °F (2005)
Degree Days  
Heating Degree Days 20 6  
Month to date heating degree days 262 220  
Since 1 July heating degree days 4308 4230  
Cooling Degree Days 0 1  
Month to date cooling degree days 15 19  
Year to date cooling degree days 15 23  
Moisture  
Dew Point 32 °F    
Average Humidity 64    
Maximum Humidity 92    
Minimum Humidity 35    
Precipitation  
Precipitation 0.25 in 0.17 in 4.40 in (2004)
Month to date precipitation 3.62 3.50  
Year to date precipitation 14.69 13.35  
Sea Level Pressure  
Sea Level Pressure 30.15 in    
Wind  
Wind Speed 8 mph (NNW)    
Max Wind Speed 20 mph    
Max Gust Speed 25 mph    
Visibility 8 miles    
Events Rain , Thunderstorm    
T = Trace of Precipitation, MM = Missing Value Source: NWS Daily Summary

Daily Weather History Graph

Daily Weather History Graph

Search for Another Location

Airport:

Trip Planner

Search our weather history database for the weather conditions in past years. The results will help you decide how hot, cold, wet, or windy it might be!

Date:

Astronomy

Apr. 24, 2013 Rise Set
Actual Time 6:21 AM CDT 7:50 PM CDT
Civil Twilight 5:54 AM CDT 8:17 PM CDT
Nautical Twilight 5:21 AM CDT 8:50 PM CDT
Astronomical Twilight 4:46 AM CDT 9:25 PM CDT
Moon 6:55 PM CDT (4/24) 5:23 AM CDT (4/24)
Length of Visible Light 14h 23m
Length of Day
13h 29m
Waxing Gibbous, 98% of the Moon is Illuminated
Apr 24
Waxing Gibbous
Apr 25
Full
May 2
Last Quarter
May 9
New
May 17
First Quarter

Hourly Weather History & Observations

Time (CDT) Temp. Windchill Dew Point Humidity Pressure Visibility Wind Dir Wind Speed Gust Speed Precip Events Conditions
12:20 AM 37.4 °F 34.9 °F 35.6 °F 93% 30.03 in 2.5 mi Variable 3.5 mph - 0.10 in Rain , Thunderstorm Heavy Thunderstorms and Rain
12:34 AM 37.4 °F 31.4 °F 35.6 °F 93% 30.05 in 1.8 mi NW 8.1 mph - 0.19 in Rain , Thunderstorm Light Thunderstorms and Rain
12:41 AM 37.4 °F 29.8 °F 35.6 °F 93% 30.03 in 2.5 mi North 11.5 mph - 0.20 in Rain , Thunderstorm Thunderstorms and Rain
12:49 AM 37.4 °F 33.8 °F 35.6 °F 93% 30.05 in 5.0 mi NW 4.6 mph - 0.23 in Rain , Thunderstorm Rain
12:53 AM 37.9 °F 32.7 °F 36.0 °F 93% 30.04 in 4.0 mi NW 6.9 mph - 0.24 in Rain , Thunderstorm Rain
1:06 AM 37.4 °F 30.8 °F 35.6 °F 93% 30.04 in - NW 9.2 mph - 0.02 in Rain , Thunderstorm Light Thunderstorms and Rain
1:36 AM 37.4 °F 29.8 °F 35.6 °F 93% 30.07 in 6.0 mi WNW 11.5 mph 16.1 mph 0.05 in Rain , Thunderstorm Light Thunderstorms and Rain
1:49 AM 37.4 °F 30.3 °F 35.6 °F 93% 30.04 in 5.0 mi NNW 10.4 mph - 0.08 in Rain Rain
1:53 AM 37.0 °F 28.9 °F 35.1 °F 93% 30.03 in 4.0 mi NNW 12.7 mph - 0.09 in Rain Rain
2:01 AM 37.4 °F 29.3 °F 35.6 °F 93% 30.04 in 5.0 mi NNW 12.7 mph 23.0 mph 0.02 in Rain Rain
2:12 AM 37.4 °F 29.8 °F 35.6 °F 93% 30.04 in 7.0 mi NNW 11.5 mph 19.6 mph 0.03 in Rain Light Rain
2:53 AM 37.0 °F 28.5 °F 35.1 °F 93% 30.02 in 5.0 mi NNW 13.8 mph 18.4 mph 0.14 in Rain Rain
3:03 AM 37.4 °F 29.8 °F 35.6 °F 93% 30.03 in 5.0 mi NNW 11.5 mph 18.4 mph 0.02 in Rain Rain
3:53 AM 37.0 °F 29.3 °F 34.0 °F 89% 30.05 in 10.0 mi North 11.5 mph 24.2 mph 0.03 in   Overcast
4:05 AM 37.4 °F 29.3 °F 33.8 °F 87% 30.05 in 10.0 mi North 12.7 mph 19.6 mph N/A   Overcast
5:32 AM 37.4 °F 32.1 °F 33.8 °F 87% 30.07 in 10.0 mi North 6.9 mph 16.1 mph N/A   Overcast
5:53 AM 37.0 °F 30.4 °F 34.0 °F 89% 30.12 in 10.0 mi NW 9.2 mph - N/A   Overcast
6:53 AM 37.0 °F 28.9 °F 33.1 °F 86% 30.15 in 10.0 mi NNW 12.7 mph 18.4 mph N/A   Overcast
7:53 AM 37.9 °F 30.9 °F 33.1 °F 83% 30.19 in 10.0 mi NNW 10.4 mph 18.4 mph N/A   Mostly Cloudy
8:53 AM 37.9 °F 30.0 °F 30.9 °F 76% 30.20 in 10.0 mi NNW 12.7 mph 23.0 mph N/A   Overcast
9:53 AM 41.0 °F 32.2 °F 32.0 °F 70% 30.20 in 10.0 mi NNW 18.4 mph 25.3 mph N/A   Mostly Cloudy
10:40 AM 44.6 °F 37.4 °F 32.0 °F 61% 30.19 in 10.0 mi NW 16.1 mph 23.0 mph N/A   Scattered Clouds
10:53 AM 44.1 °F 37.4 °F 32.0 °F 63% 30.21 in 10.0 mi North 13.8 mph 23.0 mph N/A   Mostly Cloudy
11:53 AM 46.0 °F 40.6 °F 32.0 °F 58% 30.23 in 10.0 mi NW 11.5 mph - N/A   Mostly Cloudy
12:00 PM 44.6 °F 40.2 °F 32.0 °F 61% 30.21 in 10.0 mi North 8.1 mph 16.1 mph N/A   Scattered Clouds
12:53 PM 46.9 °F - 30.0 °F 52% 30.24 in 10.0 mi NNW 5.8 mph 17.3 mph N/A   Clear
1:53 PM 51.1 °F - 30.0 °F 44% 30.23 in 10.0 mi NNW 8.1 mph 16.1 mph N/A   Clear
2:53 PM 53.1 °F - 28.9 °F 40% 30.22 in 10.0 mi North 9.2 mph - N/A   Clear
3:53 PM 54.0 °F - 30.0 °F 40% 30.22 in 10.0 mi Variable 6.9 mph - N/A   Clear
4:53 PM 55.0 °F - 28.0 °F 35% 30.22 in 10.0 mi Variable 6.9 mph - N/A   Clear
5:53 PM 54.0 °F - 27.0 °F 35% 30.22 in 10.0 mi West 5.8 mph - N/A   Clear
6:53 PM 53.1 °F - 26.1 °F 35% 30.23 in 10.0 mi West 5.8 mph - N/A   Clear
7:53 PM 48.9 °F - 27.0 °F 43% 30.24 in 10.0 mi NW 3.5 mph - N/A   Clear
8:53 PM 45.0 °F - 28.9 °F 53% 30.27 in 10.0 mi Calm Calm - N/A   Clear
9:53 PM 41.0 °F - 30.9 °F 67% 30.30 in 10.0 mi Calm Calm - N/A   Clear
10:53 PM 36.0 °F - 30.0 °F 79% 30.30 in 10.0 mi Calm Calm - N/A   Clear
11:53 PM 37.9 °F 34.4 °F 28.9 °F 70% 30.31 in 10.0 mi West 4.6 mph - N/A   Clear